Time,TemperatureF,DewpointF,PressureIn,WindDirection,WindDirectionDegrees,WindSpeedMPH,WindSpeedGustMPH,Humidity,HourlyPrecipIn,Conditions,Clouds,dailyrainin,SoftwareType,DateUTC
2013-03-12 09:22:00,25.0,21.0,29.63,WNW,298,5.0,11.0,86,0.00,,,0.00,,2013-03-12 14:22:00,
2013-03-12 09:33:00,25.0,21.0,29.63,NW,308,6.0,11.0,86,0.00,,,0.00,,2013-03-12 14:33:00,
2013-03-12 09:42:00,25.0,21.0,29.63,NW,308,6.0,11.0,86,0.00,,,0.00,,2013-03-12 14:42:00,
2013-03-12 09:52:00,25.0,21.0,29.63,NW,307,5.0,11.0,86,0.00,,,0.00,,2013-03-12 14:52:00,
2013-03-12 10:02:00,25.0,21.0,29.63,NW,310,6.0,11.0,86,0.00,,,0.00,,2013-03-12 15:02:00,
2013-03-12 10:12:00,25.0,21.0,29.63,NW,310,6.0,11.0,86,0.00,,,0.00,,2013-03-12 15:12:00,
2013-03-12 10:22:00,25.0,21.0,29.63,NW,309,6.0,11.0,84,0.00,,,0.00,,2013-03-12 15:22:00,
2013-03-12 10:32:00,26.0,22.0,29.63,NW,318,5.0,9.0,84,0.00,,,0.00,,2013-03-12 15:32:00,
2013-03-12 10:42:00,26.0,22.0,29.63,NW,318,5.0,9.0,84,0.00,,,0.00,,2013-03-12 15:42:00,
2013-03-12 10:52:00,26.0,22.0,29.63,WNW,298,5.0,10.0,83,0.00,,,0.00,,2013-03-12 15:52:00,
2013-03-12 11:02:00,26.0,21.0,29.63,NW,306,5.0,10.0,82,0.00,,,0.00,,2013-03-12 16:02:00,
2013-03-12 11:12:00,26.0,21.0,29.63,NW,306,5.0,10.0,82,0.00,,,0.00,,2013-03-12 16:12:00,
2013-03-12 11:22:00,26.0,21.0,29.63,NW,306,5.0,10.0,82,0.00,,,0.00,,2013-03-12 16:22:00,
2013-03-12 11:33:00,27.0,20.0,29.63,NW,313,5.0,10.0,75,0.00,,,0.00,,2013-03-12 16:33:00,
2013-03-12 11:43:00,27.0,20.0,29.63,NW,313,5.0,10.0,75,0.00,,,0.00,,2013-03-12 16:43:00,
2013-03-12 11:53:00,28.0,20.0,29.63,NW,308,5.0,10.0,72,0.00,,,0.00,,2013-03-12 16:53:00,
2013-03-12 12:02:00,28.0,20.0,29.63,NW,309,7.0,13.0,70,0.00,,,0.00,,2013-03-12 17:02:00,
2013-03-12 12:12:00,28.0,20.0,29.63,NW,309,7.0,13.0,70,0.00,,,0.00,,2013-03-12 17:12:00,
2013-03-12 12:22:00,28.0,20.0,29.63,NW,326,5.0,12.0,70,0.00,,,0.00,,2013-03-12 17:22:00,
2013-03-12 12:33:00,28.0,19.0,29.63,NW,305,6.0,10.0,69,0.00,,,0.00,,2013-03-12 17:33:00,
2013-03-12 12:43:00,28.0,19.0,29.63,NW,305,6.0,10.0,69,0.00,,,0.00,,2013-03-12 17:43:00,
2013-03-12 12:53:00,28.0,18.0,29.63,NW,322,7.0,14.0,67,0.00,,,0.00,,2013-03-12 17:53:00,
2013-03-12 13:02:00,28.0,18.0,29.63,NW,306,7.0,12.0,67,0.00,,,0.00,,2013-03-12 18:02:00,
2013-03-12 13:13:00,28.0,19.0,29.64,WNW,297,8.0,13.0,68,0.00,,,0.00,,2013-03-12 18:13:00,
2013-03-12 13:23:00,28.0,19.0,29.64,WNW,297,8.0,13.0,68,0.00,,,0.00,,2013-03-12 18:23:00,
2013-03-12 13:33:00,29.0,19.0,29.64,WNW,286,8.0,17.0,65,0.00,,,0.00,,2013-03-12 18:33:00,
2013-03-12 13:42:00,29.0,19.0,29.64,WNW,286,8.0,17.0,65,0.00,,,0.00,,2013-03-12 18:42:00,
2013-03-12 13:53:00,29.0,19.0,29.64,WNW,290,8.0,14.0,66,0.00,,,0.00,,2013-03-12 18:53:00,
2013-03-12 14:03:00,29.0,20.0,29.64,NW,313,7.0,14.0,68,0.00,,,0.00,,2013-03-12 19:03:00,
2013-03-12 14:13:00,29.0,20.0,29.64,NW,313,7.0,14.0,68,0.00,,,0.00,,2013-03-12 19:13:00,
2013-03-12 14:22:00,29.0,19.0,29.63,NW,307,8.0,13.0,66,0.00,,,0.00,,2013-03-12 19:22:00,
2013-03-12 14:33:00,29.0,19.0,29.63,NW,307,8.0,13.0,66,0.00,,,0.00,,2013-03-12 19:33:00,
2013-03-12 14:43:00,29.0,19.0,29.63,NW,307,8.0,13.0,66,0.00,,,0.00,,2013-03-12 19:43:00,
2013-03-12 14:53:00,29.0,19.0,29.64,NW,312,7.0,14.0,66,0.00,,,0.00,,2013-03-12 19:53:00,
2013-03-12 15:02:00,30.0,19.0,29.64,WNW,302,8.0,13.0,64,0.00,,,0.00,,2013-03-12 20:02:00,
2013-03-12 15:12:00,30.0,19.0,29.64,WNW,302,8.0,13.0,64,0.00,,,0.00,,2013-03-12 20:12:00,
2013-03-12 15:22:00,30.0,20.0,29.64,WNW,298,6.0,13.0,65,0.00,,,0.00,,2013-03-12 20:22:00,
2013-03-12 15:32:00,30.0,19.0,29.64,WNW,298,6.0,11.0,64,0.00,,,0.00,,2013-03-12 20:32:00,
2013-03-12 15:42:00,30.0,19.0,29.64,WNW,298,6.0,11.0,64,0.00,,,0.00,,2013-03-12 20:42:00,
2013-03-12 15:52:00,30.0,19.0,29.64,NW,306,8.0,14.0,62,0.00,,,0.00,,2013-03-12 20:52:00,
2013-03-12 16:02:00,30.0,19.0,29.64,WNW,300,7.0,14.0,62,0.00,,,0.00,,2013-03-12 21:02:00,
2013-03-12 16:12:00,30.0,19.0,29.64,WNW,300,7.0,14.0,62,0.00,,,0.00,,2013-03-12 21:12:00,
2013-03-12 16:22:00,30.0,19.0,29.65,WNW,297,7.0,13.0,64,0.00,,,0.00,,2013-03-12 21:22:00,
2013-03-12 16:32:00,30.0,20.0,29.65,WNW,299,7.0,14.0,67,0.00,,,0.00,,2013-03-12 21:32:00,
2013-03-12 16:43:00,30.0,20.0,29.65,WNW,299,7.0,14.0,67,0.00,,,0.00,,2013-03-12 21:43:00,
2013-03-12 16:52:00,30.0,21.0,29.65,WNW,300,7.0,13.0,68,0.00,,,0.00,,2013-03-12 21:52:00,
2013-03-12 17:02:00,29.0,20.0,29.66,WNW,301,8.0,14.0,70,0.00,,,0.00,,2013-03-12 22:02:00,
2013-03-12 17:12:00,29.0,20.0,29.66,WNW,301,8.0,14.0,70,0.00,,,0.00,,2013-03-12 22:12:00,
2013-03-12 17:22:00,29.0,21.0,29.66,WNW,293,8.0,16.0,72,0.00,,,0.00,,2013-03-12 22:22:00,
2013-03-12 17:33:00,29.0,21.0,29.66,WNW,293,7.0,13.0,71,0.00,,,0.00,,2013-03-12 22:33:00,
2013-03-12 17:43:00,29.0,21.0,29.66,WNW,293,7.0,13.0,71,0.00,,,0.00,,2013-03-12 22:43:00,
2013-03-12 17:53:00,29.0,21.0,29.66,NW,314,6.0,12.0,71,0.00,,,0.00,,2013-03-12 22:53:00,
2013-03-12 18:02:00,29.0,21.0,29.67,WNW,293,7.0,12.0,72,0.00,,,0.00,,2013-03-12 23:02:00,
2013-03-12 18:12:00,29.0,21.0,29.67,WNW,293,7.0,12.0,72,0.00,,,0.00,,2013-03-12 23:12:00,
2013-03-12 18:22:00,29.0,21.0,29.67,WNW,292,4.0,10.0,72,0.00,,,0.00,,2013-03-12 23:22:00,
2013-03-12 18:34:00,29.0,20.0,29.67,NW,319,7.0,13.0,70,0.00,,,0.00,,2013-03-12 23:34:00,
2013-03-12 18:43:00,29.0,20.0,29.67,NW,319,7.0,13.0,70,0.00,,,0.00,,2013-03-12 23:43:00,
2013-03-12 18:52:00,29.0,20.0,29.67,NW,319,7.0,13.0,70,0.00,,,0.00,,2013-03-12 23:52:00,
2013-03-12 19:02:00,28.0,21.0,29.68,NW,316,8.0,13.0,76,0.00,,,0.00,,2013-03-13 00:02:00,
2013-03-12 19:12:00,28.0,21.0,29.68,NW,316,8.0,13.0,76,0.00,,,0.00,,2013-03-13 00:12:00,
2013-03-12 19:23:00,28.0,24.0,29.69,NNW,329,8.0,14.0,85,0.00,,,0.00,,2013-03-13 00:23:00,
2013-03-12 19:33:00,27.0,23.0,29.70,NNW,327,5.0,11.0,85,0.00,,,0.00,,2013-03-13 00:33:00,
2013-03-12 19:42:00,27.0,23.0,29.70,NNW,327,5.0,11.0,85,0.00,,,0.00,,2013-03-13 00:42:00,
2013-03-12 19:52:00,26.0,22.0,29.70,North,357,7.0,16.0,86,0.00,,,0.00,,2013-03-13 00:52:00,
2013-03-12 20:03:00,25.0,22.0,29.72,North,4,7.0,13.0,87,0.00,,,0.00,,2013-03-13 01:03:00,
2013-03-12 20:12:00,25.0,22.0,29.72,North,4,7.0,13.0,87,0.00,,,0.00,,2013-03-13 01:12:00,
2013-03-12 20:22:00,24.0,21.0,29.73,North,359,9.0,18.0,87,0.00,,,0.00,,2013-03-13 01:22:00,
2013-03-12 20:32:00,23.0,19.0,29.73,North,355,13.0,21.0,84,0.00,,,0.00,,2013-03-13 01:32:00,
2013-03-12 20:42:00,23.0,19.0,29.73,North,355,13.0,21.0,84,0.00,,,0.00,,2013-03-13 01:42:00,
2013-03-12 20:53:00,23.0,17.0,29.74,North,355,12.0,27.0,76,0.00,,,0.00,,2013-03-13 01:53:00,
2013-03-12 21:02:00,22.0,14.0,29.76,North,350,12.0,21.0,70,0.00,,,0.00,,2013-03-13 02:02:00,
2013-03-12 21:12:00,22.0,14.0,29.76,North,350,12.0,21.0,70,0.00,,,0.00,,2013-03-13 02:12:00,
2013-03-12 21:22:00,22.0,14.0,29.76,North,350,12.0,21.0,70,0.00,,,0.00,,2013-03-13 02:22:00,
2013-03-12 21:32:00,22.0,14.0,29.76,North,350,12.0,21.0,70,0.00,,,0.00,,2013-03-13 02:32:00,
2013-03-12 21:42:00,22.0,14.0,29.76,North,350,12.0,21.0,70,0.00,,,0.00,,2013-03-13 02:42:00,